タットル彗星

8P/Tuttle (2008)

English version
Home page
Total 6,336 html files since Dec. 4, 1995
Updated on June 14, 2008

---------------------------------------------------------------------

・ プロフィール

・ 写真集

・ 軌道要素

Epoch 2008 Jan. 15.0 TT = JDT 2454480.5
T 2008 Jan. 27.02282 TT                                 MPC
q   1.0271342            (2000.0)            P               Q
n   0.07239258     Peri.  207.50653     -0.27030038     -0.50619163
a   5.7017306      Node   270.34153     +0.96276231     -0.13756816
e   0.8198557      Incl.   54.98302     +0.00514267     -0.85137831
P  13.61
From 770 observations 1967-2008, mean residual 0".6.  Nongravitational
   parameters A1 = +0.13, A2 = +0.0137.

・ 星図

・ 光度変化

        m1 = 7.0 + 5 logΔ + 20.0 log r(t - 25)

---------------------------------------------------------------------

軌道要素はM.P.E.C. 2008-A21に掲載されたものです。
星図は StellaNavigator Ver.2.0 for Windows (アストロアーツ 編著 / アスキー出版局刊) で作成したものです。
光度グラフはComet for Windowsで作成したものです。

---------------------------------------------------------------------

Copyright(C) 1995-2008 Seiichi Yoshida (comet@aerith.net). All rights reserved.